When you browse on this site, cookies collect data to enhance your experience and personalize the content and advertising you see.
Visit our Privacy Policy to learn more. By continuing to use the site, you agree to this use of cookies and data.
  • In Hungary
  • List of Countries
  • For 7 days
  • Water Temperature
  • Satellite Maps
  • Weather Map
  • News
  • Weather Widgets
  • user-avatar
    Login

    Hourly Weather Salzburg

    Today, 21 January, Monday

    Time Temperature Precipitation Wind Pressure Humidity
    00:00 -12°C° 0 mm 1 mps 620 mmHg 80%
    01:00 -12°C° 0 mm 1 mps 620 mmHg 81%
    02:00 -12°C° 0 mm 1 mps 620 mmHg 81%
    03:00 -13°C° 0 mm 1 mps 620 mmHg 81%
    04:00 -13°C° 0 mm 1 mps 620 mmHg 82%
    05:00 -13°C° 0 mm 1 mps 620 mmHg 82%
    06:00 -13°C° 0 mm 1 mps 620 mmHg 83%
    07:00 -13°C° 0 mm 1 mps 620 mmHg 83%
    08:00 -11°C° 0 mm 1 mps 621 mmHg 84%
    09:00 -10°C° 0 mm 1 mps 622 mmHg 86%
    10:00 -8°C° 0 mm 0 mps 623 mmHg 87%
    11:00 -7°C° 0 mm 0 mps 623 mmHg 87%
    12:00 -6°C° 0 mm 1 mps 623 mmHg 86%
    13:00 -4°C° 0 mm 1 mps 623 mmHg 86%
    14:00 -6°C° 0 mm 1 mps 622 mmHg 89%
    15:00 -6°C° 0 mm 1 mps 622 mmHg 91%
    16:00 -7°C° 0 mm 1 mps 622 mmHg 94%
    17:00 -8°C° 0 mm 1 mps 621 mmHg 94%
    18:00 -10°C° 0 mm 1 mps 621 mmHg 95%
    19:00 -11°C° 0 mm 1 mps 621 mmHg 95%
    20:00 -12°C° 0 mm 1 mps 620 mmHg 94%
    21:00 -12°C° 0 mm 1 mps 620 mmHg 93%
    22:00 -13°C° 0 mm 1 mps 620 mmHg 92%
    23:00 -13°C° 0 mm 1 mps 620 mmHg 91%

    Tomorrow, 22 January, Tuesday

    Time Temperature Precipitation Wind Pressure Humidity
    00:00 -13°C° 0 mm 1 mps 619 mmHg 90%
    01:00 -14°C° 0 mm 1 mps 619 mmHg 89%
    02:00 -14°C° 0 mm 1 mps 619 mmHg 89%
    03:00 -14°C° 0 mm 1 mps 618 mmHg 88%
    04:00 -14°C° 0 mm 1 mps 618 mmHg 88%
    05:00 -14°C° 0 mm 1 mps 617 mmHg 87%
    06:00 -14°C° 0 mm 1 mps 617 mmHg 86%
    07:00 -14°C° 0 mm 1 mps 617 mmHg 85%
    08:00 -12°C° 0 mm 1 mps 617 mmHg 85%
    09:00 -11°C° 0 mm 1 mps 617 mmHg 85%
    10:00 -9°C° 0 mm 1 mps 618 mmHg 86%
    11:00 -8°C° 0 mm 1 mps 617 mmHg 84%
    12:00 -6°C° 0 mm 1 mps 617 mmHg 81%
    13:00 -4°C° 0 mm 0 mps 617 mmHg 79%
    14:00 -4°C° 0 mm 1 mps 616 mmHg 83%
    15:00 -6°C° 0 mm 1 mps 615 mmHg 86%
    16:00 -7°C° 0 mm 1 mps 614 mmHg 89%
    17:00 -8°C° 0 mm 1 mps 613 mmHg 88%
    18:00 -10°C° 0 mm 1 mps 612 mmHg 87%
    19:00 -14°C° 0 mm 2 mps 612 mmHg 85%
    20:00 -14°C° 0 mm 2 mps 611 mmHg 83%
    21:00 -15°C° 0 mm 2 mps 610 mmHg 81%
    22:00 -15°C° 0 mm 2 mps 610 mmHg 79%
    23:00 -16°C° 0 mm 2 mps 609 mmHg 78%

    Day after tomorrow, 23 January, Wednesday

    Time Temperature Precipitation Wind Pressure Humidity
    00:00 -16°C° 0 mm 2 mps 609 mmHg 77%
    01:00 -16°C° 0 mm 2 mps 608 mmHg 76%
    02:00 -16°C° 0 mm 2 mps 608 mmHg 75%
    03:00 -16°C° 0 mm 2 mps 608 mmHg 74%
    04:00 -16°C° 0 mm 2 mps 607 mmHg 73%
    05:00 -14°C° 0 mm 1 mps 607 mmHg 73%
    06:00 -14°C° 0 mm 1 mps 607 mmHg 73%
    07:00 -15°C° 0 mm 1 mps 607 mmHg 72%
    08:00 -13°C° 0 mm 1 mps 608 mmHg 75%
    09:00 -11°C° 0 mm 1 mps 608 mmHg 78%
    10:00 -10°C° 0 mm 0 mps 609 mmHg 82%
    11:00 -9°C° 0 mm 0 mps 609 mmHg 82%
    12:00 -8°C° 0 mm 1 mps 609 mmHg 83%
    13:00 -7°C° 0 mm 1 mps 610 mmHg 84%
    14:00 -7°C° 0 mm 1 mps 609 mmHg 87%
    15:00 -8°C° 0 mm 1 mps 609 mmHg 90%
    16:00 -8°C° 0 mm 1 mps 609 mmHg 93%
    17:00 -10°C° 0 mm 1 mps 609 mmHg 94%
    18:00 -11°C° 0 mm 0 mps 609 mmHg 94%
    19:00 -12°C° 0 mm 0 mps 609 mmHg 95%
    20:00 -13°C° 0 mm 0 mps 610 mmHg 94%
    21:00 -13°C° 0 mm 0 mps 610 mmHg 93%
    22:00 -13°C° 0 mm 1 mps 610 mmHg 92%
    23:00 -13°C° 0 mm 1 mps 611 mmHg 91%

    24 January, Thursday

    Time Temperature Precipitation Wind Pressure Humidity
    00:00 -14°C° 0 mm 1 mps 611 mmHg 91%
    01:00 -14°C° 0 mm 1 mps 611 mmHg 90%
    02:00 -14°C° 0 mm 1 mps 612 mmHg 90%
    03:00 -14°C° 0 mm 1 mps 612 mmHg 91%
    04:00 -13°C° 0 mm 1 mps 612 mmHg 91%
    05:00 -14°C° 0 mm 1 mps 612 mmHg 92%
    06:00 -14°C° 0 mm 1 mps 613 mmHg 92%
    07:00 -14°C° 0 mm 1 mps 613 mmHg 92%
    08:00 -13°C° 0.1 mm 1 mps 614 mmHg 92%
    09:00 -11°C° 0.1 mm 1 mps 615 mmHg 92%
    10:00 -10°C° 0.1 mm 0 mps 616 mmHg 92%
    11:00 -9°C° 0.1 mm 1 mps 616 mmHg 91%
    12:00 -8°C° 0.1 mm 1 mps 616 mmHg 91%
    13:00 -8°C° 0.1 mm 1 mps 616 mmHg 91%
    14:00 -8°C° 0.1 mm 1 mps 616 mmHg 92%
    15:00 -8°C° 0.1 mm 1 mps 616 mmHg 93%
    16:00 -8°C° 0.1 mm 1 mps 616 mmHg 94%
    17:00 -9°C° 0.1 mm 1 mps 616 mmHg 95%
    18:00 -10°C° 0.1 mm 1 mps 617 mmHg 96%
    19:00 -11°C° 0.1 mm 1 mps 617 mmHg 96%
    20:00 -11°C° 0.1 mm 1 mps 617 mmHg 96%
    21:00 -12°C° 0.1 mm 1 mps 617 mmHg 96%
    22:00 -12°C° 0.1 mm 1 mps 618 mmHg 96%
    23:00 -12°C° 0.1 mm 1 mps 618 mmHg 96%

    25 January, Friday

    Time Temperature Precipitation Wind Pressure Humidity
    00:00 -12°C° 0.1 mm 1 mps 618 mmHg 96%
    01:00 -12°C° 0.1 mm 1 mps 618 mmHg 96%
    02:00 -13°C° 0.1 mm 1 mps 618 mmHg 96%
    03:00 -13°C° 0.1 mm 1 mps 617 mmHg 96%
    04:00 -13°C° 0.1 mm 1 mps 617 mmHg 96%
    05:00 -13°C° 0.1 mm 1 mps 617 mmHg 95%
    06:00 -14°C° 0.1 mm 1 mps 617 mmHg 95%
    07:00 -15°C° 0.1 mm 1 mps 617 mmHg 94%
    08:00 -14°C° 0 mm 1 mps 618 mmHg 93%
    09:00 -13°C° 0 mm 1 mps 618 mmHg 92%
    10:00 -12°C° 0 mm 1 mps 619 mmHg 91%
    11:00 -11°C° 0 mm 1 mps 619 mmHg 90%
    12:00 -10°C° 0 mm 1 mps 619 mmHg 89%
    13:00 -9°C° 0 mm 1 mps 619 mmHg 88%
    14:00 -9°C° 0 mm 1 mps 619 mmHg 89%
    15:00 -9°C° 0 mm 1 mps 619 mmHg 90%
    16:00 -10°C° 0 mm 1 mps 619 mmHg 91%
    17:00 -11°C° 0 mm 1 mps 619 mmHg 91%
    18:00 -12°C° 0 mm 1 mps 619 mmHg 92%
    19:00 -14°C° 0 mm 1 mps 618 mmHg 92%
    20:00 -14°C° 0 mm 1 mps 618 mmHg 90%
    21:00 -14°C° 0 mm 1 mps 619 mmHg 88%
    22:00 -15°C° 0 mm 1 mps 619 mmHg 86%
    23:00 -14°C° 0 mm 1 mps 619 mmHg 86%

    26 January, Saturday

    Time Temperature Precipitation Wind Pressure Humidity
    00:00 -14°C° 0 mm 1 mps 619 mmHg 85%
    01:00 -14°C° 0 mm 1 mps 619 mmHg 85%
    02:00 -13°C° 0.2 mm 1 mps 619 mmHg 87%
    03:00 -12°C° 0.2 mm 1 mps 619 mmHg 89%
    04:00 -11°C° 0.2 mm 1 mps 620 mmHg 91%
    05:00 -11°C° 0.2 mm 1 mps 620 mmHg 91%
    06:00 -10°C° 0.2 mm 1 mps 620 mmHg 91%
    07:00 -10°C° 0.2 mm 1 mps 620 mmHg 91%
    08:00 -8°C° 0.1 mm 1 mps 620 mmHg 91%
    09:00 -7°C° 0.1 mm 1 mps 620 mmHg 91%
    10:00 -6°C° 0.1 mm 1 mps 620 mmHg 90%
    11:00 -4°C° 0 mm 1 mps 620 mmHg 91%
    12:00 -3°C° 0 mm 1 mps 620 mmHg 92%
    13:00 -2°C° 0 mm 1 mps 619 mmHg 93%
    14:00 -2°C° 0 mm 1 mps 619 mmHg 93%
    15:00 -3°C° 0 mm 0 mps 618 mmHg 93%
    16:00 -4°C° 0 mm 0 mps 618 mmHg 92%
    17:00 -4°C° 0 mm 1 mps 617 mmHg 91%
    18:00 -6°C° 0 mm 1 mps 617 mmHg 89%
    19:00 -7°C° 0 mm 1 mps 616 mmHg 88%
    20:00 -7°C° 0 mm 1 mps 616 mmHg 87%
    21:00 -8°C° 0 mm 2 mps 615 mmHg 86%
    22:00 -8°C° 0 mm 2 mps 615 mmHg 86%
    23:00 -9°C° 0 mm 2 mps 614 mmHg 86%
    Show more